W5UGD Weather Reports


time (UTC)temp
C
wind
direction
speed
KPH
gust
KPH
rain 1hr
cm
rain 24hr
cm
rain mn
cm
humidity
%
barometer
mb
20260906060503 22 0 0.0 0.0 0.00 0.00 0.00 95 1011.6
20260906060003 22 0 0.0 0.0 0.00 0.00 0.00 95 1011.7
20260906055524 22 103 0.0 1.6 0.00 0.00 0.00 95 1011.8
20260906055003 22 103 0.0 1.6 0.00 0.00 0.00 95 1011.8
20260906054503 22 0 0.0 0.0 0.00 0.00 0.00 95 1011.8
20260906054003 22 0 0.0 0.0 0.00 0.00 0.00 94 1012.0
20260906053503 22 0 0.0 0.0 0.00 0.00 0.00 94 1012.0
20260906053024 22 0 0.0 0.0 0.00 0.00 0.00 94 1012.0
20260906052503 22 0 0.0 0.0 0.00 0.00 0.00 94 1012.1
20260906052003 22 0 0.0 0.0 0.00 0.00 0.00 94 1012.2
20260906051503 22 0 0.0 0.0 0.00 0.00 0.00 94 1012.2
20260906051003 22 0 0.0 0.0 0.00 0.00 0.00 94 1012.4
20260906050503 22 0 0.0 0.0 0.00 0.00 0.00 93 1012.3
20260906050003 22 0 0.0 0.0 0.00 0.00 0.00 93 1012.3
20260906045524 22 103 0.0 1.6 0.00 0.00 0.00 93 1012.3
20260906045003 22 103 0.0 1.6 0.00 0.00 0.00 93 1012.4
20260906044503 22 0 0.0 0.0 0.00 0.00 0.00 93 1012.4
20260906044003 22 103 0.0 1.6 0.00 0.00 0.00 93 1012.4
20260906043503 22 103 0.0 1.6 0.00 0.00 0.00 93 1012.3
20260906043003 22 103 0.0 1.6 0.00 0.00 0.00 93 1012.3
20260906042503 22 0 0.0 0.0 0.00 0.00 0.00 93 1012.3
20260906042003 23 103 0.0 1.6 0.00 0.00 0.00 93 1012.2
20260906041503 23 103 0.0 1.6 0.00 0.00 0.00 93 1012.2
20260906041003 23 103 1.6 3.2 0.00 0.00 0.00 94 1012.4
20260906040503 23 105 1.6 3.2 0.00 0.00 0.00 94 1012.4
20260906040004 22 108 1.6 3.2 0.00 0.00 0.00 94 1012.4
20260906035503 22 109 1.6 1.6 0.00 0.00 0.00 94 1012.4
20260906035003 22 109 1.6 1.6 0.00 0.00 0.00 94 1012.3
20260906034503 22 109 0.0 1.6 0.00 0.00 0.00 94 1012.3
20260906034003 22 0 0.0 0.0 0.00 0.00 0.00 93 1012.4
20260906033503 22 108 0.0 1.6 0.00 0.00 0.00 93 1012.5
20260906033003 23 108 0.0 1.6 0.00 0.00 0.00 93 1012.5
20260906032503 23 0 0.0 0.0 0.00 0.00 0.00 93 1012.4
20260906032003 23 108 0.0 1.6 0.00 0.00 0.00 93 1012.4
20260906031503 23 109 0.0 1.6 0.00 0.00 0.00 93 1012.4
20260906031003 23 109 0.0 1.6 0.00 0.00 0.00 93 1012.4
20260906030503 23 109 0.0 1.6 0.00 0.00 0.00 93 1012.5
20260906030003 23 109 0.0 1.6 0.00 0.00 0.00 93 1012.4
20260906025503 23 0 0.0 0.0 0.00 0.00 0.00 93 1012.3
20260906025003 23 0 0.0 0.0 0.00 0.00 0.00 92 1012.4
20260906024503 23 0 0.0 0.0 0.00 0.00 0.00 93 1012.4
20260906024003 23 109 0.0 1.6 0.00 0.00 0.00 93 1012.4
20260906023503 23 109 0.0 1.6 0.00 0.00 0.00 93 1012.5
20260906023003 23 108 0.0 1.6 0.00 0.00 0.00 92 1012.4
20260906022503 23 108 0.0 1.6 0.00 0.00 0.00 92 1012.5
20260906022003 23 108 0.0 1.6 0.00 0.00 0.00 92 1012.5
20260906021503 23 0 0.0 0.0 0.00 0.00 0.00 91 1012.4
20260906021003 23 0 0.0 0.0 0.00 0.00 0.00 91 1012.4
20260906020503 23 0 0.0 0.0 0.00 0.00 0.00 91 1012.4
20260906020003 23 0 0.0 0.0 0.00 0.00 0.00 91 1012.4
20260906015503 23 0 0.0 0.0 0.00 0.00 0.00 90 1012.3
20260906015024 23 108 0.0 1.6 0.00 0.00 0.00 90 1012.3
20260906014503 23 108 0.0 1.6 0.00 0.00 0.00 90 1012.2
20260906014003 24 108 0.0 1.6 0.00 0.00 0.00 90 1012.0
20260906013503 24 110 0.0 1.6 0.00 0.00 0.00 90 1012.1
20260906013003 24 109 0.0 3.2 0.00 0.00 0.00 90 1012.0
20260906012503 24 82 1.6 4.8 0.00 0.00 0.00 90 1012.0
20260906012003 23 58 1.6 4.8 0.00 0.00 0.00 90 1011.9
20260906011524 23 44 0.0 4.8 0.00 0.00 0.00 90 1011.8
20260906011003 23 0 0.0 0.0 0.00 0.00 0.00 90 1011.6
20260906010503 24 0 0.0 0.0 0.00 0.00 0.00 89 1011.6
20260906010024 24 0 0.0 0.0 0.00 0.00 0.00 89 1011.7
20260906005503 24 86 0.0 1.6 0.00 0.00 0.00 89 1011.7
20260906005024 24 86 0.0 1.6 0.00 0.00 0.00 89 1011.7
20260906004503 24 86 0.0 1.6 0.00 0.00 0.00 89 1011.6
20260906004003 24 86 0.0 1.6 0.00 0.00 0.00 89 1011.5
20260906003503 24 86 0.0 1.6 0.00 0.00 0.00 89 1011.4
20260906003003 24 86 0.0 1.6 0.00 0.00 0.00 88 1011.3
20260906002503 25 86 0.0 1.6 0.00 0.00 0.00 88 1011.3
20260906002003 25 0 0.0 0.0 0.00 0.00 0.00 87 1011.3
20260906001503 25 0 0.0 0.0 0.00 0.00 0.00 86 1011.3
20260906001024 25 86 0.0 1.6 0.00 0.00 0.00 86 1011.2
20260906000503 25 86 0.0 1.6 0.00 0.00 0.00 85 1011.3
20260906000024 25 85 1.6 3.2 0.00 0.00 0.00 85 1011.2
20260905235503 25 85 1.6 3.2 0.00 0.00 0.00 84 1011.2
20260905235003 25 85 0.0 3.2 0.00 0.00 0.00 84 1011.1
20260905234524 25 85 0.0 1.6 0.00 0.00 0.00 83 1011.1
20260905234003 26 85 0.0 3.2 0.00 0.00 0.00 82 1010.9
20260905233503 26 86 1.6 3.2 0.00 0.00 0.00 82 1010.8
20260905233003 26 86 0.0 1.6 0.00 0.00 0.00 81 1010.9
20260905232503 26 86 0.0 3.2 0.00 0.00 0.00 81 1010.9
20260905232003 26 86 1.6 3.2 0.00 0.00 0.00 82 1011.0
20260905231503 26 86 1.6 3.2 0.00 0.00 0.00 82 1011.1
20260905231003 26 87 0.0 1.6 0.00 0.00 0.00 81 1010.9
20260905230503 26 0 0.0 0.0 0.00 0.00 0.00 81 1011.0
20260905230003 26 87 0.0 1.6 0.00 0.00 0.00 80 1011.0
20260905225503 26 87 0.0 1.6 0.00 0.00 0.00 80 1011.1
20260905225003 26 88 0.0 1.6 0.00 0.00 0.00 81 1011.1
20260905224503 26 87 0.0 1.6 0.00 0.00 0.00 80 1011.1
20260905224003 26 0 0.0 0.0 0.00 0.00 0.00 81 1011.2
20260905223503 26 0 0.0 0.0 0.00 0.00 0.00 82 1011.1
20260905223024 26 0 0.0 0.0 0.00 0.00 0.00 82 1011.1
20260905222524 26 87 0.0 1.6 0.00 0.00 0.00 82 1011.1
20260905222003 26 87 0.0 1.6 0.00 0.00 0.00 82 1011.0
20260905221503 26 86 0.0 1.6 0.00 0.00 0.00 81 1011.0
20260905221024 26 86 0.0 1.6 0.00 0.00 0.00 82 1011.1
20260905220503 26 86 0.0 1.6 0.00 0.00 0.00 81 1011.1
20260905220003 26 85 0.0 1.6 0.00 0.00 0.00 81 1011.1
20260905215503 26 85 0.0 1.6 0.00 0.00 0.00 81 1011.2
20260905215003 26 84 0.0 1.6 0.00 0.00 0.00 81 1011.2
20260905214503 26 85 0.0 1.6 0.00 0.00 0.00 81 1011.2
20260905214003 26 85 0.0 1.6 0.00 0.00 0.00 82 1011.3
20260905213503 26 85 0.0 1.6 0.00 0.00 0.00 81 1011.3
20260905213003 26 85 0.0 1.6 0.00 0.00 0.00 83 1011.5
20260905212503 26 86 0.0 1.6 0.00 0.00 0.00 86 1011.6
20260905212003 26 86 0.0 1.6 0.00 0.00 0.00 86 1011.8
20260905211524 26 84 0.0 1.6 0.00 0.00 0.00 87 1011.7
20260905211003 26 84 0.0 1.6 0.00 0.00 0.00 86 1011.9
20260905210524 26 83 0.0 1.6 0.00 0.00 0.00 84 1011.8
20260905210003 26 83 0.0 1.6 0.00 0.00 0.00 86 1012.0
20260905205503 26 83 0.0 1.6 0.00 0.00 0.00 86 1012.0
20260905205003 26 83 0.0 1.6 0.00 0.00 0.00 86 1011.9
20260905204503 26 83 1.6 3.2 0.00 0.00 0.00 84 1011.7
20260905204003 26 89 1.6 4.8 0.00 0.00 0.00 84 1011.5
20260905203503 26 101 0.0 4.8 0.00 0.00 0.00 83 1011.6
20260905203003 26 131 0.0 3.2 0.00 0.00 0.00 83 1011.7
20260905202503 26 126 1.6 3.2 0.00 0.00 0.00 83 1011.6
20260905202003 26 87 1.6 4.8 0.00 0.00 0.00 81 1011.4
20260905201503 26 76 1.6 4.8 0.00 0.00 0.00 81 1011.5
20260905201003 26 86 1.6 4.8 0.00 0.00 0.00 81 1011.6
20260905200524 26 91 1.6 3.2 0.00 0.00 0.00 79 1011.7
20260905200003 26 87 0.0 1.6 0.00 0.00 0.00 78 1011.8
20260905195503 27 84 0.0 3.2 0.00 0.00 0.00 77 1011.7
20260905195004 27 84 1.6 3.2 0.00 0.00 0.00 76 1011.8
20260905194503 27 107 1.6 9.7 0.00 0.00 0.00 73 1012.2
20260905194003 28 130 1.6 9.7 0.00 0.00 0.00 70 1012.4
20260905193503 28 135 3.2 12.9 0.00 0.00 0.00 67 1012.3
20260905193003 29 167 6.4 24.1 0.00 0.00 0.00 64 1012.1
20260905192503 30 180 8.0 35.4 0.00 0.00 0.00 62 1012.4
20260905192003 31 167 4.8 35.4 0.00 0.00 0.00 62 1012.2
20260905191503 31 154 3.2 14.5 0.00 0.00 0.00 64 1011.8
20260905191003 32 156 1.6 14.5 0.00 0.00 0.00 65 1011.8
20260905190503 32 136 0.0 1.6 0.00 0.00 0.00 65 1011.6
20260905190003 32 113 0.0 3.2 0.00 0.00 0.00 65 1011.5
20260905185524 33 112 0.0 3.2 0.00 0.00 0.00 63 1011.3
20260905185003 33 65 0.0 1.6 0.00 0.00 0.00 61 1011.3
20260905184503 33 44 1.6 4.8 0.00 0.00 0.00 59 1011.3
20260905184003 34 34 1.6 4.8 0.00 0.00 0.00 58 1011.2
20260905183503 35 344 0.0 3.2 0.00 0.00 0.00 56 1011.2
20260905183003 35 320 0.0 3.2 0.00 0.00 0.00 54 1011.1
20260905182503 35 301 0.0 3.2 0.00 0.00 0.00 52 1011.5
20260905182003 36 300 1.6 4.8 0.00 0.00 0.00 50 1011.6
20260905181503 36 78 1.6 4.8 0.00 0.00 0.00 48 1011.5
20260905181003 37 97 0.0 3.2 0.00 0.00 0.00 46 1011.6
20260905180524 37 87 0.0 3.2 0.00 0.00 0.00 48 1011.6
20260905180024 37 147 1.6 4.8 0.00 0.00 0.00 46 1011.7
20260905175503 37 179 1.6 4.8 0.00 0.00 0.00 46 1011.7
20260905175003 37 133 1.6 4.8 0.00 0.00 0.00 48 1011.9
20260905174503 37 171 0.0 4.8 0.00 0.00 0.00 49 1011.9
20260905174003 36 220 1.6 4.8 0.00 0.00 0.00 52 1012.1
20260905173503 36 263 0.0 4.8 0.00 0.00 0.00 51 1012.1
20260905173003 36 167 0.0 4.8 0.00 0.00 0.00 52 1012.1
20260905172503 35 150 1.6 4.8 0.00 0.00 0.00 53 1012.3
20260905172003 36 167 1.6 8.0 0.00 0.00 0.00 50 1012.3
20260905171503 36 154 3.2 8.0 0.00 0.00 0.00 50 1012.3
20260905171024 36 111 3.2 8.0 0.00 0.00 0.00 51 1012.4
20260905170524 36 117 1.6 9.7 0.00 0.00 0.00 50 1012.4
20260905170003 36 138 3.2 9.7 0.00 0.00 0.00 50 1012.6
20260905165503 36 161 1.6 6.4 0.00 0.00 0.00 52 1012.8
20260905165003 36 86 1.6 4.8 0.00 0.00 0.00 51 1012.7
20260905164503 36 70 1.6 4.8 0.00 0.00 0.00 51 1012.8
20260905164003 36 121 1.6 4.8 0.00 0.00 0.00 52 1012.9
20260905163503 36 189 1.6 6.4 0.00 0.00 0.00 51 1013.0
20260905163024 35 193 1.6 6.4 0.00 0.00 0.00 52 1013.1
20260905162503 36 184 1.6 4.8 0.00 0.00 0.00 52 1013.2
20260905162003 35 168 1.6 4.8 0.00 0.00 0.00 54 1013.2
20260905161503 35 160 1.6 6.4 0.00 0.00 0.00 57 1013.3
20260905161003 35 185 1.6 6.4 0.00 0.00 0.00 55 1013.3
20260905160503 35 256 0.0 3.2 0.00 0.00 0.00 57 1013.3
20260905160003 35 268 1.6 4.8 0.00 0.00 0.00 57 1013.3
20260905155503 35 302 1.6 4.8 0.00 0.00 0.00 59 1013.3
20260905155003 35 11 1.6 6.4 0.00 0.00 0.00 57 1013.4
20260905154503 35 29 1.6 6.4 0.00 0.00 0.00 58 1013.4
20260905154024 35 41 1.6 6.4 0.00 0.00 0.00 60 1013.3
20260905153503 34 88 0.0 3.2 0.00 0.00 0.00 60 1013.5
20260905153003 34 329 0.0 4.8 0.00 0.00 0.00 61 1013.5
20260905152503 33 39 1.6 4.8 0.00 0.00 0.00 62 1013.5
20260905152024 33 49 1.6 4.8 0.00 0.00 0.00 65 1013.6
20260905151503 33 34 1.6 6.4 0.00 0.00 0.00 63 1013.5
20260905151003 33 11 1.6 6.4 0.00 0.00 0.00 65 1013.6
20260905150503 33 343 1.6 4.8 0.00 0.00 0.00 65 1013.6
20260905150003 32 3 1.6 4.8 0.00 0.00 0.00 65 1013.7
20260905145503 32 32 1.6 4.8 0.00 0.00 0.00 66 1013.7
20260905145003 32 25 1.6 4.8 0.00 0.00 0.00 66 1013.7
20260905144503 32 25 1.6 4.8 0.00 0.00 0.00 68 1013.7
20260905144003 32 44 1.6 4.8 0.00 0.00 0.00 69 1013.8
20260905143503 31 70 0.0 3.2 0.00 0.00 0.00 70 1013.7
20260905143024 31 45 1.6 6.4 0.00 0.00 0.00 73 1013.7
20260905142503 31 37 0.0 6.4 0.00 0.00 0.00 72 1013.8
20260905142003 30 61 0.0 3.2 0.00 0.00 0.00 76 1013.8
20260905141503 30 43 1.6 4.8 0.00 0.00 0.00 76 1013.9
20260905141003 29 54 1.6 4.8 0.00 0.00 0.00 77 1014.0
20260905140503 28 78 0.0 3.2 0.00 0.00 0.00 81 1014.1
20260905140004 28 64 0.0 3.2 0.00 0.00 0.00 82 1014.0
20260905135503 27 61 0.0 3.2 0.00 0.00 0.00 83 1014.0
20260905135003 27 44 0.0 3.2 0.00 0.00 0.00 85 1014.1
20260905134503 27 51 1.6 3.2 0.00 0.00 0.00 85 1014.2
20260905134003 27 71 1.6 3.2 0.00 0.00 0.00 86 1014.2
20260905133524 26 88 1.6 3.2 0.00 0.00 0.00 87 1014.2
20260905133024 26 90 1.6 3.2 0.00 0.00 0.00 88 1014.2
20260905132503 26 94 0.0 3.2 0.00 0.00 0.00 89 1014.1
20260905132003 26 98 0.0 3.2 0.00 0.00 0.00 90 1014.2
20260905131503 25 108 0.0 1.6 0.00 0.00 0.00 91 1014.2
20260905131003 25 108 0.0 1.6 0.00 0.00 0.00 92 1014.2
20260905130503 25 104 0.0 3.2 0.00 0.00 0.00 93 1014.2
20260905130003 25 101 0.0 3.2 0.00 0.00 0.00 94 1014.1
20260905125503 24 0 0.0 0.0 0.00 0.00 0.00 94 1014.1
20260905125003 24 60 0.0 1.6 0.00 0.00 0.00 94 1014.1
20260905124503 24 60 0.0 1.6 0.00 0.00 0.00 94 1014.0
20260905124003 23 34 0.0 3.2 0.00 0.00 0.00 94 1013.9
20260905123524 23 32 0.0 3.2 0.00 0.00 0.00 95 1014.0
20260905123003 23 92 0.0 1.6 0.00 0.00 0.00 95 1014.0
20260905122503 23 92 0.0 1.6 0.00 0.00 0.00 95 1014.0
20260905122003 23 91 0.0 1.6 0.00 0.00 0.00 95 1014.0
20260905121503 23 91 0.0 1.6 0.00 0.00 0.00 95 1014.0
20260905121003 23 0 0.0 0.0 0.00 0.00 0.00 95 1014.1
20260905120524 23 0 0.0 0.0 0.00 0.00 0.00 95 1014.0
20260905120003 22 0 0.0 0.0 0.00 0.00 0.00 95 1014.0
20260905115503 22 0 0.0 0.0 0.00 0.00 0.00 95 1013.9
20260905115003 22 0 0.0 0.0 0.00 0.00 0.00 95 1013.8
20260905114503 22 0 0.0 0.0 0.00 0.00 0.00 95 1013.8
20260905114024 22 0 0.0 0.0 0.00 0.00 0.00 95 1013.8
20260905113503 22 0 0.0 0.0 0.00 0.00 0.00 95 1013.7
20260905113003 22 0 0.0 0.0 0.00 0.00 0.00 95 1013.5
20260905112503 22 0 0.0 0.0 0.00 0.00 0.00 95 1013.5
20260905112003 22 0 0.0 0.0 0.00 0.00 0.00 95 1013.5
20260905111503 22 91 0.0 1.6 0.00 0.00 0.00 95 1013.4
20260905111003 22 91 0.0 1.6 0.00 0.00 0.00 95 1013.4
20260905110503 22 0 0.0 0.0 0.00 0.00 0.00 95 1013.3
20260905110003 22 0 0.0 0.0 0.00 0.00 0.00 95 1013.3
20260905105503 22 0 0.0 0.0 0.00 0.00 0.00 95 1013.2
20260905105003 22 0 0.0 0.0 0.00 0.00 0.00 95 1013.1
20260905104503 22 0 0.0 0.0 0.00 0.00 0.00 95 1013.1
20260905104003 22 0 0.0 0.0 0.00 0.00 0.00 95 1013.0
20260905103503 22 0 0.0 0.0 0.00 0.00 0.00 95 1013.0
20260905103003 22 0 0.0 0.0 0.00 0.00 0.00 95 1012.9
20260905102503 22 0 0.0 0.0 0.00 0.00 0.00 95 1012.8
20260905102003 22 0 0.0 0.0 0.00 0.00 0.00 95 1012.8
20260905101503 22 0 0.0 0.0 0.00 0.00 0.00 95 1012.7
20260905101003 22 0 0.0 0.0 0.00 0.00 0.00 95 1012.7
20260905100503 22 0 0.0 0.0 0.00 0.00 0.00 95 1012.6
20260905100024 22 0 0.0 0.0 0.00 0.00 0.00 94 1012.7
20260905095503 22 0 0.0 0.0 0.00 0.00 0.00 94 1012.6
20260905095003 22 0 0.0 0.0 0.00 0.00 0.00 94 1012.7
20260905094503 22 0 0.0 0.0 0.00 0.00 0.00 94 1012.8
20260905094003 22 0 0.0 0.0 0.00 0.00 0.00 94 1012.8
20260905093503 22 0 0.0 0.0 0.00 0.00 0.00 94 1012.8
20260905093003 22 0 0.0 0.0 0.00 0.00 0.00 94 1012.8
20260905092503 23 0 0.0 0.0 0.00 0.00 0.00 94 1012.9
20260905092003 23 0 0.0 0.0 0.00 0.00 0.00 94 1012.9
20260905091503 23 0 0.0 0.0 0.00 0.00 0.00 94 1012.8
20260905091003 23 0 0.0 0.0 0.00 0.00 0.00 94 1012.8
20260905090524 23 0 0.0 0.0 0.00 0.00 0.00 94 1012.9
20260905090003 23 0 0.0 0.0 0.00 0.00 0.00 94 1012.9
20260905085503 23 0 0.0 0.0 0.00 0.00 0.00 94 1012.9
20260905085024 23 0 0.0 0.0 0.00 0.00 0.00 94 1012.9
20260905084524 23 0 0.0 0.0 0.00 0.00 0.00 94 1013.0
20260905084024 23 92 0.0 1.6 0.00 0.00 0.00 94 1013.0
20260905083503 23 92 0.0 1.6 0.00 0.00 0.00 94 1013.0
20260905083003 23 92 0.0 1.6 0.00 0.00 0.00 94 1013.1
20260905082503 23 0 0.0 0.0 0.00 0.00 0.00 94 1013.2
20260905082003 23 0 0.0 0.0 0.00 0.00 0.00 93 1013.2
20260905081524 23 0 0.0 0.0 0.00 0.00 0.00 93 1013.2
20260905081003 23 0 0.0 0.0 0.00 0.00 0.00 93 1013.3
20260905080503 23 0 0.0 0.0 0.00 0.00 0.00 93 1013.3
20260905080003 23 0 0.0 0.0 0.00 0.00 0.00 93 1013.3
20260905075503 23 0 0.0 0.0 0.00 0.00 0.00 93 1013.3
20260905075003 23 0 0.0 0.0 0.00 0.00 0.00 93 1013.4
20260905074503 23 0 0.0 0.0 0.00 0.00 0.00 93 1013.4
20260905074024 23 0 0.0 0.0 0.00 0.00 0.00 93 1013.4
20260905073503 23 0 0.0 0.0 0.00 0.00 0.00 92 1013.4
20260905073003 23 0 0.0 0.0 0.00 0.00 0.00 92 1013.5
20260905072503 23 0 0.0 0.0 0.00 0.00 0.00 92 1013.6
20260905072024 23 0 0.0 0.0 0.00 0.00 0.00 92 1013.5
20260905071503 23 0 0.0 0.0 0.00 0.00 0.00 92 1013.5
20260905071003 23 0 0.0 0.0 0.00 0.00 0.00 91 1013.6
20260905070503 23 92 0.0 1.6 0.00 0.00 0.00 92 1013.6
20260905070003 23 92 0.0 1.6 0.00 0.00 0.00 91 1013.6
20260905065503 23 0 0.0 0.0 0.00 0.00 0.00 91 1013.6
20260905065003 23 0 0.0 0.0 0.00 0.00 0.00 91 1013.7
20260905064503 23 0 0.0 0.0 0.00 0.00 0.00 91 1013.6
20260905064003 23 0 0.0 0.0 0.00 0.00 0.00 91 1013.7
20260905063503 24 0 0.0 0.0 0.00 0.00 0.00 91 1013.7
20260905063003 24 91 0.0 1.6 0.00 0.00 0.00 91 1013.8
20260905062503 24 91 0.0 1.6 0.00 0.00 0.00 91 1013.8
20260905062003 24 0 0.0 0.0 0.00 0.00 0.00 91 1013.8
20260905061524 24 0 0.0 0.0 0.00 0.00 0.00 91 1014.0
20260905061003 24 0 0.0 0.0 0.00 0.00 0.00 90 1014.0